Location: Ellerstadt
(49.4644°N, 8.2615°E)
Time: 19:05:23
(UTC+00:00)

Vanguard 1 - Pass Details

Date: 13 June 2021
Orbit: 651 x 3831 km, 34.2° (Epoch: 29 July)

Event Time Altitude Azimuth Distance (km) Brightness Sun altitude
Rises 19:46:41 0° 197° (SSW) 7,961 14.5 -2.4°
Reaches altitude 10° 19:54:36 10° 184° (S) 6,823 14.0 -3.3°
Maximum altitude 20:08:06 21° 146° (SE) 5,312 13.2 -4.9°
Drops below altitude 10° 20:18:42 10° 106° (ESE) 5,304 13.3 -6.1°
Sets 20:23:34 0° 91° (E) 5,807 13.6 -6.6°
